This demonstration page uses our WeatherBlox Daily Observations layout. Learn more.

40.92945, -100.16068

Hourly Observations for June 12, 2015

Temp ( °F °C ) Dew Point ( °F °C ) Humidity (%) Winds ( mph kmh ) Pressure ( in mb ) Visibility ( mi km ) Precip ( " mm )
12:15 am 00:15 Cloudy 62 16.5 57 14 85 85 NE 7 11 29.88 1012 10 16.0934 N/A
12:35 am 00:35 Cloudy 62 16.5 57 14.1 86 86 NE 5 7 29.91 1013 10 16.0934 N/A
12:55 am 00:55 Cloudy 61 16.3 58 14.2 87 87 NE 6 9 29.88 1012 10 16.0934 N/A
1:15 am 01:15 Cloudy 61 16.3 57 14.1 87 87 NNE 6 9 29.88 1012 10 16.0934 N/A
1:35 am 01:35 Cloudy 61 16.3 58 14.2 87 87 NNE 8 13 29.85 1011 10 16.0934 N/A
1:55 am 01:55 Cloudy 61 16.3 57 14.1 87 87 NNE 9 15 29.85 1011 10 16.0934 N/A
2:15 am 02:15 Cloudy 61 16.1 58 14.2 89 89 N 8 13 29.85 1011 10 16.0934 N/A
2:35 am 02:35 Cloudy 61 16 58 14.2 89 89 N 8 13 29.88 1012 10 16.0934 N/A
2:55 am 02:55 Mostly Cloudy 61 16 57 14.1 89 89 N 8 13 29.88 1012 10 16.0934 N/A
3:15 am 03:15 Cloudy 60 15.8 57 14.1 90 90 N 9 15 29.88 1012 10 16.0934 N/A
3:35 am 03:35 Cloudy 60 15.7 57 14.1 90 90 N 7 11 29.88 1012 10 16.0934 N/A
3:55 am 03:55 Mostly Cloudy 59 15.2 57 13.7 91 91 NNE 5 7 29.91 1013 10 16.0934 N/A
4:15 am 04:15 Partly Cloudy 58 14.6 56 13.4 93 93 NNE 3 6 29.91 1013 10 16.0934 N/A
4:35 am 04:35 Partly Cloudy 58 14.2 56 13.1 93 93 Calm 29.91 1013 10 16.0934 N/A
4:55 am 04:55 Partly Cloudy 57 14.1 55 13 93 93 NNE 3 6 29.91 1013 10 16.0934 N/A
5:15 am 05:15 Partly Cloudy 57 13.7 55 12.8 94 94 N 3 6 29.91 1013 7 11.26538 N/A
5:35 am 05:35 Mostly Cloudy 57 13.8 55 13 95 95 N 3 6 29.91 1013 7 11.26538 N/A
5:55 am 05:55 Mostly Cloudy 57 14.1 56 13.4 96 96 N 5 7 29.91 1013 7 11.26538 N/A
6:15 am 06:15 Mostly Cloudy 58 14.5 56 13.6 94 94 N 6 9 29.94 1014 7 11.26538 N/A
6:35 am 06:35 Cloudy 58 14.5 57 13.7 95 95 N 5 7 29.91 1013 7 11.26538 N/A
6:55 am 06:55 Cloudy with Mist and Fog 58 14.5 56 13.6 94 94 N 5 7 29.94 1014 5 8.0467 N/A
7:15 am 07:15 Cloudy 58 14.5 57 13.7 95 95 N 5 7 29.94 1014 7 11.26538 N/A
7:35 am 07:35 Cloudy 58 14.6 56 13.6 94 94 NNE 6 9 29.94 1014 10 16.0934 N/A
7:55 am 07:55 Cloudy 59 15 57 13.7 92 92 N 3 6 29.94 1014 10 16.0934 N/A
8:15 am 08:15 Cloudy 59 15.2 57 13.9 92 92 NNE 3 6 29.94 1014 10 16.0934 N/A
8:35 am 08:35 Cloudy 60 15.5 57 14 91 91 NNE 7 11 29.94 1014 10 16.0934 N/A
8:55 am 08:55 Cloudy 60 15.8 57 14 89 89 N 5 7 29.94 1014 10 16.0934 N/A
9:15 am 09:15 Cloudy 61 16 57 14 88 88 NE 8 13 29.94 1014 10 16.0934 N/A
9:35 am 09:35 Cloudy 61 16.1 57 13.9 87 87 NNE 5 7 29.94 1014 10 16.0934 N/A
9:55 am 09:55 Cloudy 62 16.7 58 14.2 85 85 N 6 9 29.91 1013 10 16.0934 N/A
10:15 am 10:15 Cloudy 63 17.1 58 14.2 83 83 NNE 7 11 29.91 1013 10 16.0934 N/A
10:35 am 10:35 Mostly Cloudy 64 17.6 57 14.1 80 80 NNE 7 11 29.91 1013 10 16.0934 N/A
10:55 am 10:55 Mostly Cloudy 65 18.4 58 14.6 79 79 NNE 7 11 29.88 1012 10 16.0934 N/A
11:15 am 11:15 Partly Cloudy 65 18.6 58 14.2 76 76 NE 5 7 29.88 1012 10 16.0934 N/A
11:35 am 11:35 Mostly Cloudy 67 19.2 59 14.9 76 76 E 5 7 29.91 1013 10 16.0934 N/A
11:55 am 11:55 Mostly Cloudy 67 19.2 58 14.2 73 73 E 3 6 29.91 1013 10 16.0934 N/A
12:15 pm 12:15 Cloudy 66 19 58 14.3 74 74 Calm 29.91 1013 10 16.0934 N/A
12:35 pm 12:35 Mostly Cloudy 66 19.1 58 14.6 75 75 SSE 3 6 29.91 1013 10 16.0934 N/A
12:55 pm 12:55 Cloudy 67 19.2 58 14.3 73 73 Calm 29.91 1013 10 16.0934 N/A
1:15 pm 13:15 Mostly Cloudy 67 19.5 58 14.4 73 73 Calm 29.88 1012 10 16.0934 N/A
1:35 pm 13:35 Mostly Cloudy 66 19.1 58 14.6 75 75 SSW 5 7 29.91 1013 10 16.0934 N/A
1:55 pm 13:55 Cloudy 67 19.3 59 15 76 76 Calm 29.91 1013 10 16.0934 N/A
2:15 pm 14:15 Mostly Cloudy 67 19.2 58 14.6 75 75 SSE 3 6 29.88 1012 10 16.0934 N/A
2:35 pm 14:35 Partly Cloudy 68 19.9 59 15.2 74 74 SSE 3 6 29.85 1011 10 16.0934 N/A
2:55 pm 14:55 Partly Cloudy 68 19.8 58 14.3 71 71 SSE 3 6 29.85 1011 10 16.0934 N/A
3:15 pm 15:15 Sunny 68 20.2 59 14.9 72 72 SW 5 7 29.85 1011 10 16.0934 N/A
3:35 pm 15:35 Sunny 69 20.6 60 15.3 72 72 S 3 6 29.85 1011 10 16.0934 N/A
3:55 pm 15:55 Sunny 69 20.5 60 15.3 72 72 SSE 3 6 29.85 1011 10 16.0934 N/A
4:15 pm 16:15 Partly Cloudy 68 20 59 15 73 73 S 3 6 29.85 1011 10 16.0934 N/A
4:35 pm 16:35 Partly Cloudy with Light Drizzle 67 19.6 60 15.3 76 76 SE 5 7 29.85 1011 10 16.0934 N/A
4:55 pm 16:55 Sunny 67 19.5 59 15.1 76 76 SSE 7 11 29.85 1011 10 16.0934 N/A
5:35 pm 17:35 Sunny 67 19.3 59 15.2 77 77 SSE 7 11 29.83 1010 10 16.0934 N/A
5:55 pm 17:55 Sunny 67 19.2 60 15.5 79 79 S 8 13 29.83 1010 10 16.0934 N/A
6:15 pm 18:15 Sunny 67 19.2 61 15.9 81 81 S 7 11 29.83 1010 10 16.0934 N/A
6:35 pm 18:35 Sunny 66 19.1 60 15.7 81 81 S 6 9 29.83 1010 10 16.0934 N/A
6:55 pm 18:55 Sunny 66 19 60 15.7 81 81 S 6 9 29.83 1010 10 16.0934 N/A
7:15 pm 19:15 Sunny 66 19 60 15.7 81 81 SSW 6 9 29.83 1010 10 16.0934 N/A
7:35 pm 19:35 Sunny 66 18.8 60 15.8 83 83 S 5 7 29.83 1010 10 16.0934 N/A
7:55 pm 19:55 Sunny 65 18.6 61 16 85 85 S 5 7 29.83 1010 10 16.0934 N/A
8:15 pm 20:15 Sunny 65 18.5 61 16 85 85 SSE 6 9 29.83 1010 10 16.0934 N/A
8:35 pm 20:35 Sunny 65 18.1 61 15.9 87 87 SSE 5 7 29.85 1011 10 16.0934 N/A
8:55 pm 20:55 Sunny 64 17.7 60 15.7 88 88 SSE 7 11 29.85 1011 10 16.0934 N/A
9:15 pm 21:15 Clear 64 17.5 60 15.6 89 89 S 7 11 29.85 1011 10 16.0934 N/A
9:35 pm 21:35 Clear 63 17.2 60 15.5 90 90 S 9 15 29.85 1011 10 16.0934 N/A
9:55 pm 21:55 Clear 63 17 60 15.3 90 90 S 9 15 29.85 1011 10 16.0934 N/A
10:15 pm 22:15 Clear 62 16.7 59 15 90 90 SSE 5 7 29.85 1011 10 16.0934 N/A
10:35 pm 22:35 Clear 62 16.6 59 15.1 91 91 SSE 6 9 29.88 1012 10 16.0934 N/A
10:55 pm 22:55 Clear 62 16.6 59 15.2 92 92 S 7 11 29.88 1012 10 16.0934 N/A
11:15 pm 23:15 Clear 62 16.5 59 15.2 92 92 S 7 11 29.88 1012 10 16.0934 N/A
11:35 pm 23:35 Clear 62 16.5 60 15.3 93 93 S 7 11 29.88 1012 10 16.0934 N/A
11:55 pm 23:55 Clear 61 16.2 59 15.1 93 93 S 6 9 29.88 1012 10 16.0934 N/A

Powered by AerisWeather